New Bedford, MA

9:08 AM EDT on April 25, 2017 (GMT -0400)
New Bedford Regional

Weather History for KEWB - November, 2012

Change the Weather History Date:

Wednesday, November 7, 2012

  Actual Average Record
Temperature  
Mean Temperature 40 °F -  
Max Temperature 46 °F 54 °F 72 °F (1975)
Min Temperature 34 °F 41 °F 24 °F (2002)
Degree Days  
Heating Degree Days 25    
Moisture  
Dew Point 34 °F    
Average Humidity 76    
Maximum Humidity 100    
Minimum Humidity 62    
Precipitation  
Precipitation 0.73 in - - ()
Sea Level Pressure  
Sea Level Pressure 29.82 in    
Wind  
Wind Speed 17 mph (NNE)    
Max Wind Speed 29 mph    
Max Gust Speed 48 mph    
Visibility 6 miles    
Events Rain , Snow    
Averages and records for this station are not official NWS values.
T = Trace of Precipitation, MM = Missing Value Source: NWS Daily Summary

Daily Weather History Graph

Daily Weather History Graph

Search for Another Location

Airport or City:

Trip Planner

Search our weather history database for the weather conditions in past years. The results will help you decide how hot, cold, wet, or windy it might be!

Date:

Astronomy

Nov. 07, 2012 Rise Set
Actual Time 6:23 AM EST 4:30 PM EST
Civil Twilight 5:54 AM EST 5:00 PM EST
Nautical Twilight 5:21 AM EST 5:33 PM EST
Astronomical Twilight 4:48 AM EST 6:05 PM EST
Moon No Moon Rise 12:43 PM EST (11/7)
Length of Visible Light 11h 05m
Length of Day
10h 07m
Last Quarter, 43% of the Moon is Illuminated
Nov 7
Last Quarter
Nov 13
New
Nov 20
First Quarter
Nov 28
Full
Dec 6
Last Quarter

Hourly Weather History & Observations

Time (EST) Temp. Windchill Dew Point Humidity Pressure Visibility Wind Dir Wind Speed Gust Speed Precip Events Conditions
12:53 AM 34.0 °F 27.2 °F 27.0 °F 75% 30.09 in 10.0 mi North 8.1 mph - N/A   Partly Cloudy
1:53 AM 35.1 °F 32.2 °F 28.0 °F 76% 30.09 in 10.0 mi North 3.5 mph - N/A   Overcast
2:53 AM 37.0 °F 33.3 °F 28.9 °F 73% 30.07 in 10.0 mi North 4.6 mph - N/A   Mostly Cloudy
3:53 AM 41.0 °F 34.3 °F 32.0 °F 70% 30.04 in 10.0 mi NE 11.5 mph 16.1 mph N/A   Overcast
4:53 AM 43.0 °F 36.0 °F 30.9 °F 62% 30.01 in 10.0 mi NE 13.8 mph 23.0 mph N/A   Overcast
5:53 AM 43.0 °F 35.1 °F 32.0 °F 65% 29.99 in 10.0 mi NE 17.3 mph 27.6 mph N/A   Mostly Cloudy
6:53 AM 44.1 °F 35.4 °F 33.1 °F 65% 29.95 in 10.0 mi NE 21.9 mph 35.7 mph N/A   Mostly Cloudy
7:53 AM 45.0 °F 36.6 °F 33.1 °F 63% 29.93 in 10.0 mi NE 21.9 mph 35.7 mph N/A   Overcast
8:17 AM 44.6 °F 35.1 °F 33.8 °F 66% 29.93 in 10.0 mi NE 27.6 mph 40.3 mph N/A   Overcast
8:24 AM 46.4 °F 38.1 °F 33.8 °F 62% 29.93 in 10.0 mi NE 24.2 mph 40.3 mph N/A   Overcast
8:53 AM 46.0 °F 37.6 °F 34.0 °F 63% 29.92 in 10.0 mi NNE 24.2 mph 34.5 mph N/A   Overcast
9:53 AM 45.0 °F 36.0 °F 34.0 °F 65% 29.90 in 10.0 mi NNE 25.3 mph 42.6 mph N/A   Overcast
10:53 AM 45.0 °F 35.8 °F 33.1 °F 63% 29.88 in 10.0 mi NNE 26.5 mph 41.4 mph N/A   Overcast
11:35 AM 44.6 °F 35.5 °F 35.6 °F 71% 29.86 in 4.0 mi NE 25.3 mph 43.7 mph 0.00 in Rain Light Rain
11:51 AM 42.8 °F 35.1 °F 35.6 °F 76% 29.85 in 2.0 mi NNE 16.1 mph 47.2 mph 0.02 in Rain Rain
11:53 AM 42.1 °F 32.8 °F 36.0 °F 79% 29.86 in 2.0 mi NNE 21.9 mph 47.2 mph 0.02 in Rain Rain
12:53 PM 39.9 °F 30.0 °F 35.1 °F 83% 29.81 in 2.5 mi NNE 21.9 mph 42.6 mph 0.08 in Rain Light Rain
1:37 PM 41.0 °F 31.6 °F 35.6 °F 81% 29.79 in 2.5 mi NNE 20.7 mph 38.0 mph 0.02 in Rain Light Rain
1:51 PM 41.0 °F 32.2 °F 35.6 °F 81% 29.77 in 3.0 mi NNE 18.4 mph 32.2 mph 0.02 in Rain Light Rain
1:53 PM 41.0 °F 31.6 °F 36.0 °F 82% 29.78 in 3.0 mi NNE 20.7 mph 32.2 mph 0.02 in Rain Light Rain
2:53 PM 41.0 °F 30.7 °F 36.0 °F 82% 29.77 in 3.0 mi NE 25.3 mph 39.1 mph 0.04 in Rain Light Rain
3:53 PM 39.9 °F 29.2 °F 39.0 °F 97% 29.76 in 2.0 mi NE 25.3 mph 41.4 mph 0.06 in Rain Rain
4:25 PM 39.2 °F 27.6 °F 39.2 °F 100% 29.75 in 2.0 mi NE 28.8 mph 40.3 mph 0.06 in Rain Rain
4:53 PM 39.9 °F 30.5 °F 37.9 °F 93% 29.75 in 4.0 mi NE 19.6 mph 41.4 mph 0.11 in Rain Rain
5:08 PM 39.2 °F 27.6 °F 37.4 °F 93% 29.74 in 3.0 mi NE 28.8 mph 42.6 mph 0.03 in Rain Rain
5:23 PM 39.2 °F 28.3 °F 37.4 °F 93% 29.74 in 3.0 mi NE 25.3 mph 44.9 mph 0.07 in Rain Rain
5:53 PM 39.0 °F 28.3 °F - N/A% 29.73 in 3.0 mi NNE 24.2 mph 39.1 mph 0.14 in Rain Rain
6:53 PM 39.9 °F 29.5 °F - N/A% 29.72 in 5.0 mi NNE 24.2 mph 40.3 mph 0.11 in Rain Light Rain
7:53 PM 39.9 °F 28.8 °F - N/A% 29.69 in 5.0 mi NNE 27.6 mph 48.3 mph 0.06 in Rain Light Rain
8:53 PM 39.0 °F 30.3 °F - N/A% 29.67 in 4.0 mi NNE 16.1 mph 36.8 mph 0.02 in Rain Light Rain
9:34 PM 37.4 °F 27.8 °F - N/A% 29.64 in 3.0 mi North 17.3 mph 43.7 mph 0.03 in Snow Light Snow
9:42 PM 37.4 °F 27.8 °F - N/A% 29.63 in 3.0 mi North 17.3 mph 32.2 mph 0.04 in Snow Light Snow
9:53 PM 37.9 °F 27.9 °F - N/A% 29.63 in 2.5 mi NNE 19.6 mph 38.0 mph 0.06 in Rain Rain
10:01 PM 39.2 °F 29.8 °F - N/A% 29.62 in 4.0 mi NNE 18.4 mph 34.5 mph N/A Rain Light Rain
10:53 PM 39.0 °F 28.8 °F - N/A% 29.62 in 5.0 mi NNE 21.9 mph 39.1 mph 0.00 in Rain Light Rain
11:53 PM 39.0 °F 30.3 °F - N/A% 29.61 in 3.0 mi NNE 16.1 mph 34.5 mph 0.01 in Rain Light Rain